| time (UTC) | temp C | wind direction | speed KPH | gust KPH | rain 1hr cm | rain 24hr cm | rain mn cm | humidity % | barometer mb |
| 20260507151335 | 12 | 84 | 0.0 | 0.0 | 0.00 | 0.18 | 0.03 | 82 | 1011.7 |
| 20260507150801 | 12 | 84 | 0.0 | 0.0 | 0.00 | 0.18 | 0.03 | 80 | 1011.6 |
| 20260507145657 | 12 | 110 | 0.0 | 0.0 | 0.00 | 0.18 | 0.03 | 84 | 1011.8 |
| 20260507145123 | 11 | 110 | 0.0 | 0.0 | 0.00 | 0.18 | 0.03 | 84 | 1011.8 |
| 20260507144019 | 11 | 110 | 0.0 | 0.0 | 0.00 | 0.18 | 0.03 | 85 | 1012.0 |
| 20260507143445 | 11 | 110 | 0.0 | 0.0 | 0.00 | 0.18 | 0.03 | 86 | 1012.1 |
| 20260507142341 | 11 | 110 | 0.0 | 0.0 | 0.00 | 0.43 | 0.03 | 85 | 1012.0 |
| 20260507141807 | 11 | 110 | 0.0 | 0.0 | 0.00 | 0.43 | 0.03 | 86 | 1012.1 |
| 20260507141233 | 11 | 110 | 0.0 | 0.0 | 0.00 | 0.43 | 0.03 | 86 | 1012.2 |
| 20260507140659 | 11 | 110 | 0.0 | 0.0 | 0.00 | 0.43 | 0.03 | 86 | 1012.3 |
| 20260507140125 | 11 | 110 | 0.0 | 0.0 | 0.00 | 0.43 | 0.03 | 84 | 1012.2 |
| 20260507135550 | 11 | 110 | 0.0 | 0.0 | 0.00 | 0.43 | 0.03 | 83 | 1012.3 |
| 20260507133346 | 11 | 77 | 0.0 | 0.0 | 0.00 | 0.43 | 0.03 | 88 | 1012.5 |
| 20260507132812 | 11 | 77 | 0.0 | 0.0 | 0.00 | 0.71 | 0.03 | 86 | 1012.5 |
| 20260507132238 | 11 | 77 | 0.0 | 0.0 | 0.00 | 0.71 | 0.03 | 88 | 1012.4 |
| 20260507131134 | 11 | 77 | 0.0 | 0.0 | 0.00 | 0.71 | 0.03 | 95 | 1012.0 |
| 20260507130030 | 11 | 77 | 0.0 | 0.0 | 0.00 | 0.71 | 0.03 | 93 | 1012.3 |
| 20260507125456 | 11 | 77 | 0.0 | 0.0 | 0.00 | 0.71 | 0.03 | 93 | 1012.0 |
| 20260507124922 | 11 | 111 | 0.0 | 0.0 | 0.00 | 0.71 | 0.03 | 93 | 1012.0 |
| 20260507124348 | 11 | 111 | 0.0 | 0.0 | 0.00 | 0.71 | 0.03 | 93 | 1012.3 |
| 20260507123814 | 11 | 111 | 0.0 | 0.0 | 0.00 | 0.71 | 0.03 | 93 | 1012.2 |
| 20260507123239 | 11 | 111 | 0.0 | 0.0 | 0.00 | 0.76 | 0.03 | 93 | 1012.2 |
| 20260507122706 | 11 | 111 | 0.0 | 0.0 | 0.00 | 0.76 | 0.03 | 92 | 1012.4 |
| 20260507121601 | 11 | 111 | 0.0 | 0.0 | 0.00 | 0.76 | 0.03 | 91 | 1012.1 |
| 20260507121026 | 11 | 111 | 0.0 | 0.0 | 0.00 | 0.76 | 0.03 | 91 | 1012.1 |
| 20260507120452 | 11 | 111 | 0.0 | 0.0 | 0.00 | 0.76 | 0.03 | 91 | 1012.1 |
| 20260507115918 | 11 | 111 | 0.0 | 0.0 | 0.00 | 0.76 | 0.03 | 91 | 1012.0 |
| 20260507115344 | 11 | 112 | 0.0 | 0.0 | 0.00 | 0.76 | 0.03 | 91 | 1012.1 |
| 20260507113710 | 11 | 16 | 0.0 | 0.0 | 0.00 | 0.76 | 0.03 | 95 | 1011.8 |
| 20260507113136 | 11 | 16 | 0.0 | 0.0 | 0.00 | 0.76 | 0.03 | 95 | 1011.5 |
| 20260507112032 | 11 | 16 | 0.0 | 0.0 | 0.00 | 0.76 | 0.03 | 95 | 1011.7 |
| 20260507111459 | 11 | 16 | 0.0 | 0.0 | 0.00 | 0.76 | 0.03 | 96 | 1011.7 |
| 20260507110924 | 11 | 16 | 0.0 | 0.0 | 0.00 | 0.76 | 0.03 | 96 | 1011.5 |
| 20260507105820 | 11 | 16 | 0.0 | 0.0 | 0.00 | 0.76 | 0.03 | 98 | 1011.6 |
| 20260507104138 | 11 | 16 | 0.0 | 0.0 | 0.00 | 0.76 | 0.03 | 98 | 1011.5 |
| 20260507103604 | 11 | 16 | 0.0 | 0.0 | 0.00 | 0.76 | 0.03 | 97 | 1011.4 |
| 20260507103030 | 11 | 16 | 0.0 | 0.0 | 0.00 | 0.76 | 0.03 | 98 | 1011.4 |
| 20260507101926 | 11 | 16 | 0.0 | 0.0 | 0.00 | 0.76 | 0.03 | 98 | 1011.4 |
| 20260507100821 | 11 | 16 | 0.0 | 0.0 | 0.00 | 0.76 | 0.03 | 98 | 1011.2 |
| 20260507095717 | 11 | 16 | 0.0 | 0.0 | 0.00 | 0.76 | 0.03 | 99 | 1011.2 |
| 20260507095143 | 11 | 16 | 0.0 | 0.0 | 0.00 | 0.76 | 0.03 | 10 | 1011.2 |
| 20260507094609 | 11 | 16 | 0.0 | 0.0 | 0.00 | 0.76 | 0.03 | 10 | 1011.1 |
| 20260507092934 | 11 | 16 | 0.0 | 0.0 | 0.00 | 0.76 | 0.03 | 10 | 1011.1 |
| 20260507092400 | 11 | 16 | 0.0 | 0.0 | 0.00 | 0.76 | 0.03 | 10 | 1011.1 |
| 20260507091256 | 11 | 16 | 0.0 | 0.0 | 0.00 | 0.76 | 0.03 | 10 | 1010.8 |
| 20260507090152 | 11 | 16 | 0.0 | 0.0 | 0.00 | 0.76 | 0.03 | 10 | 1011.0 |
| 20260507085048 | 11 | 16 | 0.0 | 0.0 | 0.00 | 0.76 | 0.03 | 10 | 1011.0 |
| 20260507084514 | 11 | 16 | 0.0 | 0.0 | 0.00 | 0.76 | 0.03 | 10 | 1010.9 |
| 20260507083940 | 11 | 16 | 0.0 | 0.0 | 0.00 | 0.76 | 0.03 | 10 | 1010.9 |
| 20260507082836 | 11 | 16 | 0.0 | 0.0 | 0.00 | 0.76 | 0.03 | 10 | 1011.0 |
| 20260507082305 | 11 | 16 | 0.0 | 0.0 | 0.00 | 0.76 | 0.03 | 10 | 1010.9 |
| 20260507081157 | 11 | 16 | 0.0 | 0.0 | 0.00 | 0.76 | 0.03 | 10 | 1010.7 |
| 20260507080623 | 11 | 16 | 0.0 | 0.0 | 0.00 | 0.76 | 0.03 | 10 | 1010.4 |
| 20260507080050 | 11 | 16 | 0.0 | 0.0 | 0.00 | 0.76 | 0.03 | 10 | 1010.1 |
| 20260507075515 | 11 | 14 | 0.0 | 0.0 | 0.00 | 0.76 | 0.03 | 10 | 1010.1 |
| 20260507074942 | 11 | 14 | 0.0 | 0.0 | 0.00 | 0.76 | 0.03 | 10 | 1010.0 |
| 20260507074407 | 11 | 14 | 0.0 | 0.0 | 0.03 | 0.76 | 0.03 | 10 | 1010.1 |
| 20260507070005 | 12 | 14 | 0.0 | 0.0 | 0.03 | 0.76 | 0.03 | 10 | 1010.0 |
| 20260507064329 | 12 | 14 | 0.0 | 0.0 | 0.00 | 0.74 | 0.00 | 10 | 1010.0 |
| 20260507063754 | 12 | 14 | 0.0 | 0.0 | 0.00 | 0.74 | 0.00 | 10 | 1010.1 |
| 20260507063220 | 12 | 14 | 0.0 | 0.0 | 0.00 | 0.74 | 0.00 | 10 | 1010.0 |
| 20260507062647 | 12 | 14 | 0.0 | 0.0 | 0.00 | 0.74 | 0.00 | 10 | 1010.1 |
| 20260507062112 | 12 | 15 | 0.0 | 0.0 | 0.00 | 0.74 | 0.00 | 10 | 1010.3 |
| 20260507060438 | 12 | 14 | 0.0 | 0.0 | 0.00 | 0.74 | 0.00 | 10 | 1010.0 |
| 20260507055904 | 12 | 14 | 0.0 | 0.0 | 0.00 | 0.74 | 0.00 | 10 | 1009.9 |
| 20260507055330 | 12 | 14 | 0.0 | 0.0 | 0.00 | 0.74 | 0.00 | 10 | 1010.0 |
| 20260507053126 | 13 | 14 | 1.6 | 0.0 | 0.00 | 0.74 | 0.00 | 10 | 1010.3 |
| 20260507052022 | 13 | 248 | 0.0 | 0.0 | 0.00 | 0.74 | 0.00 | 10 | 1010.2 |
| 20260507051448 | 13 | 248 | 0.0 | 0.0 | 0.00 | 0.74 | 0.00 | 10 | 1009.9 |
| 20260507050914 | 13 | 247 | 0.0 | 0.0 | 0.00 | 0.74 | 0.00 | 10 | 1009.8 |
| 20260507050340 | 13 | 67 | 0.0 | 0.0 | 0.00 | 0.74 | 0.00 | 10 | 1009.9 |
| 20260507045806 | 13 | 49 | 0.0 | 0.0 | 0.00 | 0.74 | 0.00 | 10 | 1010.3 |
| 20260507044702 | 14 | 49 | 0.0 | 0.0 | 0.00 | 0.74 | 0.00 | 10 | 1010.1 |
| 20260507041350 | 15 | 100 | 0.0 | 0.0 | 0.00 | 0.74 | 0.74 | 97 | 1010.2 |
| 20260507040816 | 15 | 100 | 0.0 | 0.0 | 0.00 | 0.74 | 0.74 | 97 | 1010.0 |
| 20260507040242 | 15 | 100 | 0.0 | 0.0 | 0.00 | 0.74 | 0.74 | 96 | 1010.1 |
| 20260507035707 | 15 | 100 | 0.0 | 0.0 | 0.00 | 0.74 | 0.74 | 95 | 1009.8 |
| 20260507035133 | 15 | 100 | 0.0 | 0.0 | 0.00 | 0.74 | 0.74 | 95 | 1009.9 |
| 20260507034559 | 15 | 100 | 0.0 | 0.0 | 0.00 | 0.74 | 0.74 | 96 | 1009.8 |
| 20260507030713 | 16 | 302 | 0.0 | 0.0 | 0.00 | 0.74 | 0.74 | 90 | 1009.8 |
| 20260507030139 | 16 | 302 | 0.0 | 0.0 | 0.00 | 0.74 | 0.74 | 90 | 1009.5 |
| 20260507025605 | 16 | 339 | 0.0 | 0.0 | 0.00 | 0.74 | 0.74 | 91 | 1008.9 |
| 20260507025031 | 16 | 339 | 0.0 | 0.0 | 0.00 | 0.74 | 0.74 | 91 | 1008.9 |
| 20260507023927 | 17 | 320 | 1.6 | 0.0 | 0.00 | 0.74 | 0.74 | 92 | 1009.5 |
| 20260507023353 | 17 | 15 | 1.6 | 0.0 | 0.00 | 0.74 | 0.74 | 94 | 1009.4 |
| 20260507022819 | 17 | 15 | 1.6 | 0.0 | 0.00 | 0.74 | 0.74 | 94 | 1009.2 |
| 20260507022245 | 17 | 15 | 1.6 | 0.0 | 0.00 | 0.74 | 0.74 | 95 | 1009.1 |
| 20260507021711 | 17 | 51 | 0.0 | 0.0 | 0.00 | 0.74 | 0.74 | 96 | 1008.8 |
| 20260507020607 | 17 | 80 | 0.0 | 0.0 | 0.00 | 0.74 | 0.74 | 97 | 1008.9 |
| 20260507020033 | 18 | 79 | 0.0 | 0.0 | 0.00 | 0.74 | 0.74 | 97 | 1008.8 |
| 20260507014929 | 18 | 71 | 0.0 | 0.0 | 0.00 | 0.74 | 0.74 | 97 | 1008.6 |
| 20260507014355 | 18 | 71 | 0.0 | 0.0 | 0.00 | 0.74 | 0.74 | 97 | 1008.7 |
| 20260507013821 | 18 | 71 | 0.0 | 0.0 | 0.00 | 0.74 | 0.74 | 97 | 1008.3 |
| 20260507013247 | 18 | 71 | 0.0 | 0.0 | 0.00 | 0.74 | 0.74 | 97 | 1008.7 |
| 20260507012713 | 18 | 72 | 0.0 | 0.0 | 0.00 | 0.74 | 0.74 | 99 | 1008.9 |
| 20260507011608 | 18 | 71 | 0.0 | 0.0 | 0.00 | 0.74 | 0.74 | 10 | 1009.1 |
| 20260507005934 | 18 | 71 | 0.0 | 0.0 | 0.00 | 0.74 | 0.74 | 10 | 1008.9 |
| 20260507004831 | 18 | 71 | 0.0 | 0.0 | 0.00 | 0.74 | 0.74 | 10 | 1008.6 |
| 20260507003156 | 18 | 72 | 0.0 | 0.0 | 0.00 | 0.74 | 0.74 | 10 | 1008.6 |
| 20260507002622 | 18 | 71 | 0.0 | 0.0 | 0.00 | 0.74 | 0.74 | 10 | 1008.3 |
| 20260507002048 | 18 | 72 | 0.0 | 0.0 | 0.00 | 0.74 | 0.74 | 99 | 1008.3 |
| 20260507001514 | 19 | 71 | 0.0 | 0.0 | 0.00 | 0.74 | 0.74 | 98 | 1008.3 |
| 20260507000412 | 19 | 71 | 0.0 | 0.0 | 0.00 | 0.74 | 0.74 | 98 | 1008.1 |
| 20260506235307 | 19 | 71 | 0.0 | 0.0 | 0.00 | 0.74 | 0.74 | 97 | 1008.1 |
| 20260506234732 | 19 | 72 | 0.0 | 0.0 | 0.00 | 0.74 | 0.74 | 96 | 1008.1 |
| 20260506233058 | 19 | 71 | 0.0 | 0.0 | 0.00 | 0.74 | 0.74 | 96 | 1007.8 |
| 20260506232524 | 19 | 71 | 0.0 | 0.0 | 0.00 | 0.74 | 0.74 | 96 | 1007.7 |
| 20260506231950 | 19 | 71 | 0.0 | 0.0 | 0.00 | 0.74 | 0.74 | 95 | 1007.6 |
| 20260506231416 | 19 | 237 | 0.0 | 0.0 | 0.00 | 0.74 | 0.74 | 95 | 1007.6 |
| 20260506230842 | 19 | 237 | 0.0 | 0.0 | 0.00 | 0.74 | 0.74 | 95 | 1007.5 |
| 20260506225208 | 20 | 164 | 0.0 | 0.0 | 0.00 | 0.74 | 0.74 | 95 | 1007.5 |
| 20260506224103 | 20 | 164 | 0.0 | 0.0 | 0.00 | 0.74 | 0.74 | 94 | 1007.3 |
| 20260506223529 | 20 | 164 | 0.0 | 0.0 | 0.00 | 0.74 | 0.74 | 94 | 1007.3 |
| 20260506222955 | 20 | 163 | 3.2 | 0.0 | 0.00 | 0.74 | 0.74 | 94 | 1007.3 |
| 20260506222421 | 20 | 204 | 0.0 | 0.0 | 0.00 | 0.74 | 0.74 | 94 | 1007.5 |
| 20260506221847 | 20 | 186 | 1.6 | 0.0 | 0.00 | 0.74 | 0.74 | 94 | 1007.3 |
| 20260506220743 | 20 | 183 | 3.2 | 0.0 | 0.00 | 0.74 | 0.74 | 94 | 1007.3 |
| 20260506220209 | 20 | 256 | 1.6 | 0.0 | 0.00 | 0.74 | 0.74 | 94 | 1007.3 |
| 20260506215635 | 20 | 271 | 1.6 | 0.0 | 0.00 | 0.74 | 0.74 | 94 | 1007.3 |
| 20260506215101 | 20 | 218 | 1.6 | 0.0 | 0.00 | 0.74 | 0.74 | 94 | 1007.3 |
| 20260506214527 | 20 | 209 | 3.2 | 0.0 | 0.00 | 0.74 | 0.74 | 94 | 1007.4 |
| 20260506213953 | 20 | 178 | 1.6 | 0.0 | 0.00 | 0.74 | 0.74 | 94 | 1007.3 |
| 20260506213419 | 20 | 266 | 0.0 | 0.0 | 0.00 | 0.74 | 0.74 | 94 | 1007.3 |
| 20260506212315 | 20 | 260 | 1.6 | 0.0 | 0.00 | 0.74 | 0.74 | 94 | 1007.3 |
| 20260506211741 | 20 | 223 | 3.2 | 0.0 | 0.00 | 0.74 | 0.74 | 94 | 1007.3 |
| 20260506210637 | 20 | 187 | 0.0 | 0.0 | 0.00 | 0.74 | 0.74 | 94 | 1007.2 |
| 20260506205533 | 20 | 272 | 3.2 | 0.0 | 0.00 | 0.74 | 0.74 | 94 | 1007.1 |
| 20260506204959 | 20 | 224 | 1.6 | 0.0 | 0.00 | 0.74 | 0.74 | 94 | 1006.9 |
| 20260506203324 | 19 | 247 | 0.0 | 0.0 | 0.00 | 0.74 | 0.74 | 95 | 1007.0 |
| 20260506202751 | 19 | 187 | 1.6 | 0.0 | 0.00 | 0.74 | 0.74 | 94 | 1006.9 |
| 20260506202217 | 19 | 182 | 0.0 | 0.0 | 0.00 | 0.74 | 0.74 | 95 | 1006.8 |
| 20260506201643 | 19 | 285 | 1.6 | 0.0 | 0.00 | 0.74 | 0.74 | 95 | 1007.0 |
| 20260506200538 | 19 | 133 | 3.2 | 0.0 | 0.00 | 0.74 | 0.74 | 95 | 1007.0 |
| 20260506200004 | 19 | 239 | 3.2 | 0.0 | 0.00 | 0.74 | 0.74 | 95 | 1007.1 |
| 20260506195430 | 18 | 225 | 1.6 | 0.0 | 0.00 | 0.74 | 0.74 | 95 | 1007.0 |
| 20260506194856 | 18 | 175 | 3.2 | 0.0 | 0.00 | 0.74 | 0.74 | 95 | 1006.9 |
| 20260506193752 | 18 | 184 | 4.8 | 0.0 | 0.00 | 0.74 | 0.74 | 95 | 1007.1 |
| 20260506193218 | 18 | 238 | 4.8 | 0.0 | 0.00 | 0.74 | 0.74 | 95 | 1007.1 |
| 20260506192644 | 18 | 179 | 3.2 | 0.0 | 0.00 | 0.74 | 0.74 | 95 | 1007.1 |
| 20260506192110 | 18 | 237 | 3.2 | 0.0 | 0.00 | 0.74 | 0.74 | 95 | 1007.1 |
| 20260506191006 | 18 | 251 | 4.8 | 0.0 | 0.00 | 0.74 | 0.74 | 95 | 1007.0 |
| 20260506190432 | 18 | 143 | 3.2 | 0.0 | 0.00 | 0.74 | 0.74 | 96 | 1007.3 |
| 20260506185328 | 18 | 206 | 4.8 | 0.0 | 0.00 | 0.74 | 0.74 | 97 | 1007.2 |
| 20260506184754 | 18 | 204 | 3.2 | 0.0 | 0.00 | 0.74 | 0.74 | 97 | 1007.4 |
| 20260506184220 | 18 | 184 | 1.6 | 0.0 | 0.00 | 0.74 | 0.74 | 98 | 1007.6 |
| 20260506182545 | 17 | 245 | 3.2 | 0.0 | 0.00 | 0.74 | 0.74 | 97 | 1007.6 |
| 20260506181442 | 17 | 181 | 4.8 | 0.0 | 0.00 | 0.74 | 0.74 | 97 | 1007.7 |
| 20260506180907 | 17 | 191 | 1.6 | 0.0 | 0.00 | 0.74 | 0.74 | 98 | 1007.7 |
| 20260506175803 | 17 | 171 | 1.6 | 0.0 | 0.00 | 0.74 | 0.74 | 98 | 1007.8 |
| 20260506174659 | 17 | 260 | 6.4 | 0.0 | 0.00 | 0.74 | 0.74 | 99 | 1007.8 |
| 20260506173555 | 17 | 161 | 3.2 | 0.0 | 0.00 | 0.74 | 0.74 | 10 | 1008.1 |
| 20260506173021 | 17 | 287 | 3.2 | 0.0 | 0.00 | 0.74 | 0.74 | 10 | 1008.1 |
| 20260506170817 | 16 | 191 | 3.2 | 0.0 | 0.00 | 0.74 | 0.74 | 10 | 1008.2 |
| 20260506170243 | 16 | 207 | 3.2 | 0.0 | 0.00 | 0.74 | 0.74 | 10 | 1008.1 |
| 20260506165139 | 16 | 220 | 4.8 | 0.0 | 0.00 | 0.74 | 0.74 | 10 | 1008.2 |
| 20260506164605 | 16 | 123 | 4.8 | 0.0 | 0.00 | 0.74 | 0.74 | 10 | 1008.0 |
| 20260506164031 | 16 | 181 | 3.2 | 0.0 | 0.00 | 0.74 | 0.74 | 10 | 1008.1 |
| 20260506163457 | 16 | 167 | 4.8 | 1.6 | 0.00 | 0.74 | 0.74 | 10 | 1008.2 |
| 20260506162923 | 16 | 235 | 6.4 | 1.6 | 0.00 | 0.74 | 0.74 | 10 | 1008.1 |
| 20260506162349 | 16 | 245 | 3.2 | 0.0 | 0.00 | 0.74 | 0.74 | 10 | 1008.1 |
| 20260506161245 | 16 | 242 | 4.8 | 0.0 | 0.03 | 0.74 | 0.74 | 10 | 1008.2 |
| 20260506160711 | 16 | 241 | 3.2 | 0.0 | 0.03 | 0.74 | 0.74 | 10 | 1008.4 |
| 20260506160136 | 16 | 224 | 4.8 | 0.0 | 0.05 | 0.74 | 0.74 | 10 | 1008.4 |
| 20260506155602 | 15 | 155 | 3.2 | 0.0 | 0.08 | 0.74 | 0.74 | 10 | 1008.2 |
| 20260506155028 | 15 | 187 | 6.4 | 1.6 | 0.10 | 0.74 | 0.74 | 10 | 1008.3 |
| 20260506154454 | 15 | 170 | 6.4 | 1.6 | 0.13 | 0.74 | 0.74 | 10 | 1008.4 |
| 20260506153920 | 15 | 186 | 4.8 | 0.0 | 0.15 | 0.74 | 0.74 | 10 | 1008.4 |
| 20260506153347 | 15 | 208 | 3.2 | 0.0 | 0.15 | 0.74 | 0.74 | 10 | 1008.6 |
| 20260506152812 | 15 | 233 | 3.2 | 0.0 | 0.18 | 0.74 | 0.74 | 10 | 1008.9 |
| 20260506152239 | 15 | 174 | 4.8 | 0.0 | 0.18 | 0.74 | 0.74 | 10 | 1008.7 |
| 20260506151704 | 15 | 190 | 3.2 | 0.0 | 0.18 | 0.74 | 0.74 | 10 | 1008.6 |